Wind_Speed
25 26 28 29 29 30 30 30 31 31 32 31 31 31 31 30 30 29 30 29 29 29 30 30 30 31 30 30 30 29 29 29 29 29 30 30 30 30 30 30 30 29 29
25 26 27 28 28 28 28 29 30 30 31 30 30 31 30 29 29 28 29 29 29 29 28 28 29 29 30 30 31 30 29 29 29 29 29 29 29 29 29 29 29 29 29
24 25 26 26 27 27 26 27 28 28 29 29 30 29 29 28 28 28 28 28 29 28 28 28 28 29 29 29 30 30 30 30 30 29 28 29 29 29 29 29 28 29 29
24 24 25 26 26 26 26 26 26 27 27 27 28 27 27 28 27 27 27 27 27 28 28 28 28 28 29 29 29 30 30 30 30 29 29 28 29 28 28 28 28 28 27
24 24 24 25 24 24 24 24 24 25 24 25 25 25 24 24 24 25 25 26 25 26 26 27 27 28 28 28 28 29 29 29 30 29 29 29 29 29 28 28 27 27 26
22 23 22 21 20 21 21 21 21 22 22 22 22 21 21 22 22 23 24 24 24 25 25 26 27 28 27 27 27 27 28 28 28 29 29 29 29 28 28 28 27 27 26
20 19 19 19 19 18 18 18 18 18 19 19 19 19 19 20 21 21 22 23 23 23 24 25 25 25 25 26 26 26 27 27 27 27 27 27 27 28 28 28 27 27 26
17 16 16 16 16 16 16 16 16 17 18 17 18 18 18 19 19 19 19 19 20 21 21 22 22 23 23 24 25 25 24 24 25 26 27 27 27 27 27 27 26 26 26
15 15 14 14 14 15 15 15 15 16 16 16 17 16 17 18 18 18 18 18 18 18 19 19 20 20 21 22 22 23 24 24 24 25 25 26 26 26 26 26 26 26 26
13 13 13 13 13 13 13 13 13 13 12 12 13 12 13 14 15 15 15 15 15 16 16 17 17 17 17 18 18 19 21 22 22 22 22 23 23 24 24 23 23 23 23
12 12 12 12 11 12 12 12 12 12 11 11 11 11 11 12 13 13 13 12 13 14 14 14 15 14 14 14 15 16 17 18 19 19 20 20 20 21 21 21 22 21 21
11 11 11 11 11 11 11 11 11 11 11 11 11 11 11 11 11 11 11 11 11 11 12 12 12 12 13 13 13 14 14 15 16 17 18 18 18 18 19 19 19 20 20
11 10 10 10 10 10 10 10 10 9 10 10 10 10 10 10 10 10 10 10 10 10 9 9 9 9 9 9 11 11 12 12 13 14 15 15 16 17 17 18 18 18 18
11 11 10 10 10 10 10 10 10 9 9 9 9 9 10 10 9 9 9 8 8 7 7 7 7 6 6 6 7 8 9 10 11 12 12 13 14 14 16 17 16 17 17
11 11 11 10 10 10 10 10 10 10 10 10 9 9 10 10 9 9 8 8 7 7 6 5 5 4 4 4 5 6 7 7 8 10 11 12 12 13 14 15 16 16 16
11 11 11 11 11 10 11 11 10 10 10 10 10 10 9 9 9 9 9 8 8 7 5 5 4 3 2 2 2 3 4 5 6 8 9 10 11 12 13 14 14 14 15
12 12 12 11 11 11 10 10 10 10 9 9 9 9 9 9 9 9 9 9 8 7 5 4 3 3 3 3 2 2 2 3 4 5 7 8 9 11 12 13 14 14 14
13 12 12 12 12 12 12 11 11 10 9 9 9 9 9 9 9 9 9 9 8 7 6 5 4 3 3 3 3 2 3 3 4 5 6 7 9 10 10 11 12 13 14
13 13 13 13 13 12 12 12 11 10 10 10 9 9 9 8 8 8 9 9 8 7 6 5 5 5 5 4 3 3 3 4 4 5 6 8 8 9 10 10 11 12 13
13 13 14 14 14 13 13 12 12 11 11 10 10 10 10 9 9 9 9 8 7 7 6 6 6 6 5 4 4 3 3 4 4 5 6 7 8 8 9 9 10 11 12
14 13 14 14 14 14 13 13 13 12 12 11 11 11 10 9 9 9 8 8 8 7 7 7 7 7 6 5 5 5 4 4 5 6 7 8 8 9 9 10 11 12 13
14 14 14 14 14 14 14 13 13 13 13 12 12 11 11 11 10 10 10 9 8 8 8 8 8 7 7 7 7 7 6 6 6 7 8 8 9 10 11 12 13 14 15
14 14 14 14 14 14 14 14 13 13 13 13 13 13 12 11 11 11 11 11 10 10 9 9 9 9 8 8 8 9 9 9 9 10 10 11 12 12 13 14 15 16 17
14 14 14 15 15 15 14 14 14 13 13 13 14 13 13 12 12 12 12 11 11 11 11 10 10 10 10 10 11 11 11 11 12 12 13 14 14 15 16 16 17 18 19
15 15 15 15 15 15 15 14 14 14 14 14 14 14 14 14 14 13 12 12 11 12 12 12 12 12 13 13 13 13 13 13 14 15 15 16 16 17 18 19 20 20 21
16 16 16 16 16 16 16 15 15 15 15 15 15 15 15 15 15 14 14 14 14 14 14 14 14 15 15 16 16 16 16 16 17 17 18 18 19 20 21 22 22 23 24
Wind_Direction
282 279 280 279 278 279 279 278 278 277 277 277 278 278 278 276 276 276 275 273 272 271 268 266 264 262 262 261 259 257 257 257 256 255 256 255 256 256 257 258 258 259 260
287 283 282 282 281 281 280 279 278 278 277 278 278 277 277 276 276 275 274 273 272 272 270 266 265 264 264 263 261 260 258 258 257 256 255 255 255 257 259 259 259 261 262
289 286 284 283 282 282 281 280 279 278 278 277 278 277 277 277 276 275 273 272 272 271 270 268 267 265 264 263 261 259 258 258 258 256 255 256 257 258 259 261 262 262 263
290 290 287 285 285 283 282 281 279 280 280 280 280 280 278 277 276 274 274 274 272 270 269 269 268 267 265 263 261 261 260 258 257 257 257 257 256 257 258 259 260 262 263
289 290 289 286 285 284 284 282 281 283 282 283 285 282 280 278 277 275 275 274 272 271 269 269 268 268 266 263 261 259 258 257 256 256 257 257 256 256 257 257 259 261 262
292 291 291 291 290 288 286 285 285 285 286 287 287 285 282 281 280 279 278 276 274 274 272 270 270 269 266 264 261 259 257 256 255 255 254 253 254 255 256 256 258 260 261
299 297 295 294 293 296 294 290 288 288 287 287 287 285 282 283 284 283 280 279 277 276 274 272 270 269 267 265 262 259 257 255 255 254 252 251 252 254 255 255 256 258 259
306 305 303 301 298 302 300 297 296 296 293 291 292 287 285 286 288 287 286 283 280 278 276 274 271 269 267 265 263 261 257 255 254 252 252 251 251 253 253 255 255 256 256
312 309 306 303 304 306 307 305 305 304 299 295 295 294 292 292 294 294 293 289 286 284 280 278 275 272 268 266 263 260 257 256 254 253 253 251 250 251 252 252 253 253 253
316 314 312 310 310 312 313 313 312 314 311 305 303 300 298 298 300 302 301 294 290 289 285 282 279 273 267 264 260 258 255 254 255 254 253 252 250 249 248 248 248 247 248
325 323 321 318 317 316 319 319 314 316 319 319 318 314 310 306 305 307 305 300 294 291 289 286 283 275 266 260 257 256 255 253 251 251 251 251 249 246 243 244 244 242 243
335 331 327 323 323 323 323 323 320 319 319 321 322 321 322 319 317 316 315 308 301 298 295 292 288 280 269 263 259 258 253 249 249 249 248 246 244 241 239 238 238 238 240
346 346 345 343 340 339 336 335 335 331 330 332 330 329 331 329 325 322 322 317 311 306 302 299 295 287 273 265 260 256 252 248 246 245 243 242 240 237 234 234 235 234 235
354 355 357 356 355 355 355 355 353 350 348 346 345 342 340 342 343 338 334 332 329 323 315 308 299 291 283 274 263 256 250 245 241 240 239 237 234 233 231 231 233 233 232
3 2 359 356 353 353 356 358 360 3 6 2 360 356 354 352 350 352 354 354 350 345 338 333 326 304 294 283 264 249 242 237 236 236 234 231 228 226 225 225 227 228 230
11 10 9 8 5 0 359 359 360 2 6 7 6 5 1 360 360 1 1 360 357 354 353 350 344 327 317 315 290 251 238 233 234 235 230 226 224 223 223 224 225 225 229
12 12 13 12 12 10 7 6 4 3 3 4 6 8 6 4 5 6 7 6 4 5 4 2 354 343 334 326 308 287 260 238 231 231 226 224 223 223 224 223 223 224 229
15 16 15 13 11 10 8 7 7 8 6 359 358 359 0 1 1 2 4 4 4 3 3 3 359 345 334 329 318 289 258 245 242 237 223 222 221 221 221 221 223 225 229
17 19 19 18 15 13 11 11 11 9 7 5 2 0 359 359 358 358 358 359 2 2 3 3 358 349 339 335 325 299 269 252 245 238 234 230 226 228 229 227 230 231 231
21 22 21 20 19 18 15 15 13 8 6 6 2 0 359 357 355 354 354 354 357 1 4 -0 355 351 348 344 338 314 284 259 247 246 243 237 237 238 232 232 235 233 233
24 22 20 20 18 16 15 15 14 11 9 7 4 2 1 358 357 354 352 351 349 349 346 344 343 340 335 327 317 311 298 276 263 257 254 251 249 247 245 245 246 245 246
21 19 17 15 13 13 11 10 8 9 9 7 6 4 2 0 357 354 351 346 341 338 334 330 329 331 329 322 311 305 293 283 275 268 262 257 254 253 254 254 254 254 254
17 16 14 11 8 7 6 6 5 3 2 2 360 359 357 355 354 350 344 339 335 330 326 323 320 318 319 318 312 303 291 281 275 270 269 268 265 262 260 260 260 260 260
9 9 8 6 4 2 1 1 0 359 357 356 355 353 350 349 345 342 339 336 333 329 325 320 315 313 310 308 306 302 293 287 283 277 274 272 269 267 265 265 263 263 264
4 3 2 1 360 359 358 357 356 354 352 349 345 343 342 341 338 336 335 333 329 324 322 318 314 310 307 305 303 299 295 289 286 283 279 275 273 270 268 268 269 269 269
359 358 356 355 354 353 353 351 349 347 344 342 340 339 336 333 331 328 326 323 319 316 316 314 312 309 306 303 302 299 294 291 286 283 281 277 274 273 271 270 270 270 270
Height
5780 5778 5776 5775 5773 5771 5769 5766 5764 5763 5761 5759 5758 5757 5756 5755 5754 5753 5752 5752 5751 5751 5751 5752 5752 5753 5754 5755 5756 5757 5758 5760 5761 5762 5764 5766 5767 5769 5770 5771 5772 5774 5775
5774 5772 5769 5767 5765 5763 5761 5759 5757 5755 5753 5751 5750 5748 5747 5746 5745 5745 5744 5744 5744 5743 5743 5743 5744 5744 5745 5746 5747 5749 5750 5752 5753 5755 5756 5758 5760 5761 5762 5763 5765 5766 5767
5767 5765 5762 5760 5758 5756 5754 5751 5749 5747 5745 5744 5742 5740 5739 5738 5737 5737 5736 5735 5735 5735 5735 5735 5736 5736 5737 5738 5739 5740 5742 5743 5745 5747 5748 5750 5752 5753 5755 5756 5757 5758 5759
5761 5758 5755 5753 5750 5748 5746 5744 5742 5740 5738 5736 5734 5732 5731 5730 5729 5729 5728 5728 5727 5727 5727 5728 5728 5728 5729 5729 5731 5732 5733 5735 5737 5739 5741 5742 5744 5745 5747 5749 5750 5751 5752
5754 5751 5748 5746 5744 5742 5739 5737 5735 5733 5731 5729 5727 5726 5724 5723 5722 5721 5721 5720 5720 5719 5719 5719 5720 5720 5720 5721 5722 5724 5725 5727 5729 5730 5732 5734 5736 5738 5739 5741 5742 5744 5745
5747 5744 5742 5740 5738 5735 5733 5731 5729 5727 5725 5723 5721 5719 5718 5717 5716 5715 5714 5714 5713 5712 5712 5711 5712 5712 5712 5713 5714 5715 5717 5718 5720 5722 5724 5726 5728 5730 5732 5733 5735 5736 5738
5741 5739 5736 5734 5732 5730 5728 5725 5723 5721 5719 5717 5716 5714 5712 5711 5710 5708 5707 5706 5705 5705 5704 5704 5704 5704 5705 5705 5706 5707 5709 5710 5712 5714 5716 5718 5720 5722 5724 5726 5727 5729 5730
5737 5735 5732 5730 5728 5726 5723 5721 5719 5717 5714 5712 5711 5709 5707 5706 5704 5703 5701 5700 5699 5698 5697 5697 5697 5697 5697 5698 5699 5700 5701 5703 5704 5706 5709 5710 5712 5714 5716 5718 5720 5721 5723
5734 5731 5729 5726 5724 5722 5719 5717 5714 5712 5710 5708 5706 5704 5702 5701 5699 5698 5696 5695 5694 5693 5692 5691 5690 5690 5690 5691 5691 5692 5694 5695 5697 5699 5700 5702 5704 5706 5708 5710 5712 5714 5716
5731 5728 5725 5723 5721 5719 5716 5714 5712 5709 5707 5705 5703 5700 5698 5697 5695 5693 5692 5690 5689 5688 5687 5686 5685 5684 5684 5684 5685 5685 5687 5688 5690 5692 5693 5695 5697 5699 5701 5703 5705 5708 5709
5728 5725 5723 5721 5718 5716 5713 5711 5709 5707 5705 5702 5700 5698 5696 5693 5692 5690 5688 5686 5685 5684 5682 5681 5680 5679 5679 5679 5679 5680 5681 5682 5684 5686 5687 5689 5691 5693 5695 5697 5699 5702 5704
5726 5723 5721 5718 5716 5713 5711 5709 5707 5705 5703 5700 5698 5696 5694 5691 5689 5687 5686 5684 5682 5681 5679 5678 5676 5675 5675 5675 5675 5676 5676 5677 5679 5680 5682 5683 5685 5687 5690 5692 5694 5696 5698
5725 5722 5720 5717 5715 5712 5710 5707 5705 5703 5701 5699 5697 5695 5692 5690 5688 5686 5684 5681 5680 5678 5677 5675 5674 5673 5672 5671 5672 5672 5673 5674 5675 5676 5677 5679 5681 5683 5685 5687 5689 5691 5694
5724 5721 5719 5717 5714 5712 5709 5707 5704 5702 5700 5698 5696 5694 5691 5689 5687 5684 5682 5680 5678 5677 5675 5674 5672 5671 5670 5670 5669 5670 5670 5670 5671 5672 5674 5675 5677 5678 5681 5683 5685 5687 5690
5724 5721 5719 5716 5714 5711 5709 5707 5704 5702 5700 5698 5696 5693 5691 5689 5686 5684 5682 5680 5678 5676 5674 5673 5671 5670 5669 5669 5668 5668 5668 5669 5669 5670 5671 5672 5673 5675 5677 5679 5681 5683 5686
5724 5722 5719 5716 5713 5711 5709 5706 5704 5702 5700 5698 5695 5693 5691 5689 5686 5684 5682 5680 5678 5676 5674 5673 5671 5670 5669 5668 5668 5667 5667 5667 5668 5668 5669 5670 5671 5672 5674 5676 5678 5680 5682
5725 5722 5719 5717 5714 5711 5709 5706 5704 5702 5700 5698 5696 5693 5691 5689 5687 5685 5682 5680 5678 5676 5675 5673 5672 5671 5670 5668 5668 5667 5667 5667 5667 5667 5668 5668 5669 5671 5672 5673 5675 5677 5678
5725 5723 5720 5717 5715 5712 5709 5707 5704 5702 5700 5698 5696 5694 5691 5689 5687 5685 5683 5681 5679 5677 5675 5674 5672 5671 5670 5669 5668 5667 5667 5667 5666 5666 5667 5667 5668 5669 5670 5671 5673 5674 5675
5726 5724 5721 5718 5715 5713 5710 5707 5705 5702 5700 5698 5696 5694 5691 5689 5687 5685 5683 5681 5679 5677 5675 5674 5673 5672 5670 5669 5668 5667 5666 5666 5666 5666 5666 5666 5666 5667 5668 5669 5670 5671 5672
5728 5725 5722 5719 5716 5714 5711 5708 5705 5703 5701 5698 5696 5694 5691 5689 5687 5685 5683 5681 5679 5677 5676 5675 5673 5672 5670 5669 5668 5667 5666 5665 5665 5665 5664 5665 5665 5665 5666 5666 5667 5668 5669
5729 5726 5723 5720 5718 5715 5712 5709 5706 5704 5701 5699 5696 5694 5691 5689 5687 5685 5683 5681 5679 5677 5676 5675 5673 5671 5670 5668 5667 5666 5665 5664 5664 5663 5663 5663 5663 5663 5663 5664 5664 5665 5665
5730 5727 5724 5722 5719 5716 5713 5710 5707 5704 5702 5699 5697 5694 5692 5689 5687 5685 5683 5681 5679 5677 5676 5674 5672 5671 5669 5668 5666 5665 5664 5663 5663 5662 5661 5661 5661 5661 5660 5660 5661 5661 5661
5731 5728 5725 5722 5719 5716 5713 5710 5708 5705 5702 5700 5697 5695 5692 5690 5687 5685 5682 5680 5678 5676 5674 5673 5671 5670 5668 5666 5665 5663 5662 5661 5660 5660 5659 5658 5658 5657 5657 5657 5656 5656 5656
5732 5729 5726 5723 5720 5717 5713 5711 5708 5705 5702 5700 5697 5694 5692 5689 5687 5684 5682 5679 5677 5675 5673 5671 5669 5668 5666 5664 5662 5661 5659 5658 5657 5656 5655 5654 5654 5653 5652 5652 5651 5651 5651
5732 5729 5726 5723 5719 5716 5713 5710 5708 5705 5702 5699 5696 5694 5691 5688 5685 5683 5680 5678 5676 5673 5671 5669 5667 5665 5663 5661 5659 5658 5656 5654 5653 5652 5650 5649 5649 5648 5647 5646 5645 5645 5644
5731 5728 5725 5722 5719 5716 5713 5710 5707 5704 5701 5698 5695 5692 5689 5686 5683 5681 5678 5676 5673 5671 5668 5666 5664 5662 5660 5658 5655 5653 5652 5650 5648 5646 5645 5644 5643 5641 5640 5639 5638 5637 5637